Regional Weather Roundup
Issued by NWS Cleveland, OH

Home | Current Version | Previous Version | Graphics & Text | Print | Product List | Glossary On
Versions: 1 2 3 4 5 6 7 8 9 10 11 12 13 14 15 16 17 18 19 20 21 22 23 24 25 26 27 28 29 30 31 32 33 34 35 36 37 38 39 40 41 42 43 44 45 46 47 48 49 50
000
ASUS41 KCLE 291100
RWRCLE
OHIO REGIONAL WEATHER ROUNDUP
NATIONAL WEATHER SERVICE WILMINGTON, OH
700 AM EDT WED JUL 29 2015

NOTE: "FAIR" INDICATES FEW OR NO CLOUDS BELOW 12,000 FEET WITH NO
SIGNIFICANT WEATHER AND/OR OBSTRUCTIONS TO VISIBILITY.

OHZ001>008-015>018-024>027-034-035-043-044-291200-
   NORTHWEST OHIO

CITY           SKY/WX    TMP DP  RH WIND       PRES   REMARKS
DEFIANCE       PTCLDY    69  65  86 CALM      29.96F
FINDLAY        CLEAR     71  66  84 S3        29.97R
TOLEDO EXPRESS CLEAR     66  65  96 CALM      29.96S
TOLEDO EXEC    CLEAR     70  64  81 CALM      29.97S
LIMA           CLEAR     71  67  87 CALM      29.98R
$$

OHZ009>014-019>023-028>033-038-089-291200-
   NORTHEAST OHIO

CITY           SKY/WX    TMP DP  RH WIND       PRES   REMARKS
CLE-HOPKINS    MOCLDY    66  62  87 S3        30.00R
CLE-LAKEFRONT  CLEAR     73  62  68 S13       29.96R
CUY CO. ARPT   MOCLDY    72  63  73 SE6       29.98
LORAIN-ELYRIA  CLEAR     64  62  93 SW3       29.99R FOG
ASHTABULA      CLEAR     66  64  93 E3        30.00S
AKRON-CANTON   PTCLDY    71  64  78 CALM      30.00S
WOOSTER        NOT AVBL
MANSFIELD      CLEAR     68  65  90 SE3       30.00S
YOUNGSTOWN     PTCLDY    65  63  93 E7        30.00S
$$

OHZ042-051>053-060>062-070>072-077>081-291200-
  SOUTHWEST OHIO

CITY           SKY/WX    TMP DP  RH WIND       PRES   REMARKS
CINC-COVINGTON MOCLDY    73  72  96 CALM      29.99R FOG
CINC-LUNKEN    FOG       71  71 100 CALM      29.98R VSB 1/4
HAMILTON       PTCLDY    71  70  96 CALM      29.99R FOG
DAYTON         NOT AVBL
WRIGHT-PAT AFB NOT AVBL
DAYTON GENERAL CLEAR     73  70  90 S3        29.98S FOG
WILMINGTON     CLEAR     68  66  93 E5        29.99S FOG
$$

OHZ036-037-039>041-045>050-054>059-063>069-073>076-082>088-291200-
  CENTRAL AND SOUTHEAST OHIO

CITY           SKY/WX    TMP DP  RH WIND       PRES   REMARKS
COLUMBUS       PTCLDY    71  68  90 CALM      29.98S
OSU AIRPORT    CLEAR     71  68  90 CALM      29.98F FOG
BOLTON FIELD   NOT AVBL
RICKENBACK AFB NOT AVBL
NEWARK         CLEAR     68  66  93 CALM      29.99S FOG
MARION         CLEAR     68  65  90 SE3       29.99S FOG
LANCASTER      FOG       67  65  93 CALM      29.99S VSB 3/4
ZANESVILLE     CLEAR     69  66  90 CALM      29.99R FOG
NEW PHILLY     CLEAR     66  65  96 CALM      30.00S FOG
$$



USA.gov is the U.S. government's official web portal to all federal, state and local government web resources and services.